EZY2811 EGKK-EGPH

Flight info

Callsign EZY2811
Flight time N/A
Altitude 36000
Route LAM1Z LAM L10 BPK UN601 RIBEL DCT INPIP INPIP1E
Aircraft A320/M-SDE3FGHIRWY/LB1

Departure

Time 2026-05-05 10:14
Airport London Gatwick Airport (EGKK)

Arrival

Time N/A
Airport Edinburgh Airport (EGPH)
Time Latitude Longitude Altitude Speed Heading
2026-05-05 09:39 51.16152 -0.18043 204 ft 0 kts 78°
2026-05-05 09:58 51.16148 -0.18068 213 ft 4 kts 80°
2026-05-05 09:59 51.16145 -0.18110 206 ft 4 kts 86°
2026-05-05 09:59 51.16145 -0.18152 204 ft 4 kts 103°
2026-05-05 09:59 51.16155 -0.18185 216 ft 4 kts 158°
2026-05-05 09:59 51.16164 -0.18189 216 ft 0 kts 168°
2026-05-05 10:00 51.16164 -0.18190 204 ft 0 kts 168°
2026-05-05 10:04 51.16128 -0.18177 211 ft 13 kts 167°
2026-05-05 10:04 51.16036 -0.18146 212 ft 13 kts 168°
2026-05-05 10:04 51.15951 -0.18116 215 ft 12 kts 168°
2026-05-05 10:04 51.15875 -0.18090 215 ft 11 kts 167°
2026-05-05 10:05 51.15807 -0.18066 212 ft 9 kts 167°
2026-05-05 10:05 51.15772 -0.18054 204 ft 9 kts 167°
2026-05-05 10:05 51.15708 -0.18035 204 ft 9 kts 178°
2026-05-05 10:05 51.15680 -0.18097 207 ft 7 kts 256°
2026-05-05 10:06 51.15669 -0.18177 208 ft 12 kts 258°
2026-05-05 10:06 51.15644 -0.18356 208 ft 17 kts 257°
2026-05-05 10:06 51.15620 -0.18532 207 ft 16 kts 257°
2026-05-05 10:06 51.15598 -0.18692 206 ft 14 kts 257°
2026-05-05 10:07 51.15563 -0.18821 207 ft 12 kts 208°
2026-05-05 10:07 51.15485 -0.18804 204 ft 11 kts 167°
2026-05-05 10:07 51.15415 -0.18780 207 ft 10 kts 167°
2026-05-05 10:07 51.15354 -0.18758 204 ft 8 kts 167°
2026-05-05 10:08 51.15297 -0.18738 207 ft 11 kts 167°
2026-05-05 10:08 51.15192 -0.18701 209 ft 15 kts 167°
2026-05-05 10:08 51.15126 -0.18769 209 ft 13 kts 255°
2026-05-05 10:08 51.15107 -0.18898 207 ft 11 kts 256°
2026-05-05 10:09 51.15090 -0.19015 204 ft 14 kts 258°
2026-05-05 10:09 51.15059 -0.19246 204 ft 24 kts 257°
2026-05-05 10:09 51.15025 -0.19492 209 ft 22 kts 257°
2026-05-05 10:09 51.14993 -0.19719 204 ft 20 kts 258°
2026-05-05 10:10 51.14965 -0.19929 208 ft 19 kts 257°
2026-05-05 10:10 51.14938 -0.20124 213 ft 17 kts 257°
2026-05-05 10:10 51.14913 -0.20303 214 ft 16 kts 257°
2026-05-05 10:10 51.14890 -0.20468 205 ft 15 kts 257°
2026-05-05 10:11 51.14869 -0.20617 209 ft 13 kts 257°
2026-05-05 10:11 51.14851 -0.20751 208 ft 12 kts 258°
2026-05-05 10:11 51.14827 -0.20928 213 ft 21 kts 258°
2026-05-05 10:11 51.14796 -0.21138 213 ft 15 kts 249°
2026-05-05 10:12 51.14768 -0.21289 209 ft 14 kts 257°
2026-05-05 10:12 51.14727 -0.21404 204 ft 12 kts 194°
2026-05-05 10:12 51.14659 -0.21354 209 ft 10 kts 140°
2026-05-05 10:12 51.14596 -0.21318 210 ft 9 kts 165°
2026-05-05 10:13 51.14533 -0.21249 208 ft 16 kts 123°
2026-05-05 10:13 51.14535 -0.21060 207 ft 23 kts 77°
2026-05-05 10:13 51.14617 -0.20471 213 ft 88 kts 77°
2026-05-05 10:13 51.14791 -0.19201 205 ft 144 kts 78°
2026-05-05 10:14 51.15025 -0.17542 670 ft 152 kts 74°
2026-05-05 10:14 51.15257 -0.15883 1347 ft 156 kts 73°
2026-05-05 10:14 51.15495 -0.14152 1913 ft 167 kts 73°
2026-05-05 10:14 51.15764 -0.12236 2314 ft 188 kts 74°
2026-05-05 10:15 51.16061 -0.10130 2628 ft 215 kts 75°
2026-05-05 10:15 51.16425 -0.07671 3086 ft 239 kts 70°
2026-05-05 10:15 51.17265 -0.05361 3883 ft 246 kts 51°
2026-05-05 10:15 51.18324 -0.03181 4796 ft 252 kts 52°
2026-05-05 10:16 51.19412 -0.00926 5650 ft 260 kts 52°
2026-05-05 10:16 51.20531 0.01391 6592 ft 266 kts 52°
2026-05-05 10:16 51.21744 0.03648 7431 ft 271 kts 39°
2026-05-05 10:16 51.23431 0.04993 8256 ft 277 kts 12°
2026-05-05 10:17 51.25364 0.05047 9128 ft 281 kts 353°
2026-05-05 10:17 51.27324 0.04609 9807 ft 287 kts 351°
2026-05-05 10:17 51.29289 0.04124 10299 ft 297 kts 351°
2026-05-05 10:17 51.31439 0.03582 10576 ft 321 kts 351°
2026-05-05 10:18 51.33666 0.03013 11077 ft 333 kts 351°
2026-05-05 10:18 51.35931 0.02108 11830 ft 339 kts 340°
2026-05-05 10:18 51.38098 0.00558 12593 ft 344 kts 333°
2026-05-05 10:18 51.40204 -0.01317 12892 ft 347 kts 331°
2026-05-05 10:19 51.42301 -0.03233 12977 ft 346 kts 331°
2026-05-05 10:19 51.44383 -0.05160 12993 ft 346 kts 331°
2026-05-05 10:19 51.46476 -0.07085 12986 ft 346 kts 331°
2026-05-05 10:19 51.48580 -0.09001 13372 ft 350 kts 333°
2026-05-05 10:20 51.50097 -0.10033 13907 ft 351 kts 342°